Погода в Новомосковском

Россия / Челябинская область     54°20′59″N   63°03′23″E
темп.,
°C
ветер,
м/с
пор.,
м/с
влажн.,
%
обл.,
%
осадки,
мм/ч
давл.,
гПа
погр.,
м
16 июня, ср
ср1623:00+21ссз4116073 0.0 1016247
02:00+20с236222 0.1 101536
05:00+18ссз22765 0.1 101617
08:00+24зюз11546 0.0 1016301
11:00+29юз34373 0.0 10151114
14:00+32з57255 0.0 10142914
17:00+32з46245 0.0 10133132
20:00+27ссз584149 0.0 1013201
17 июня, чт
чт1723:00+20ю1160100 0.5 101311
02:00+18ююз1167100 0.1 101211
05:00+19ююз226383 0.2 101118
08:00+22сз235861 0.0 1010199
11:00+30юз5834100 0.0 10081109
14:00+33зюз6122499 0.0 10053413
17:00+33зюз7142581 0.0 10023835
20:00+25ссз711585 0.0 1003376
18 июня, пт
пт1823:00+17ссз229499 1.9 100559
02:00+17сз41091100 0.4 1004526
05:00+16ссз71190100 0.5 1005822
08:00+14с91290100 0.2 1007942
11:00+14с9156379 0.7 10101250
14:00+18с1113375 0.0 10122059
17:00+18с1114355 0.0 10132257
20:00+15с914410 0.0 10151406
19 июня, сб
сб1923:00+12ссз512462 0.0 1017265
02:00+11сз5125476 0.0 1017245
05:00+11сз5125611 0.0 1017258
08:00+15ссз7115196 0.0 1018919
11:00+16ссз7952100 0.0 10171702
14:00+16ссз71060100 0.4 10171568
17:00+17ссз8115398 0.6 10161801
20:00+16ссз585831 0.0 1016612
20 июня, вс
вс2023:00+12сз337992 0.0 101739
02:00+11зсз358699 0.0 101672
05:00+11зсз35945 0.0 1016111
08:00+18ссз576798 0.0 1016579
11:00+16сз357345 0.0 1015301
14:00+20ссз576262 0.1 1014796
17:00+24с585899 0.5 10131381
20:00+22с34678 0.3 101481